EN

Hourly Weather Tamesis

Today, 21 January, Thursday

Time Temperature Precipitation Wind Pressure Humidity
00:00 +16°C° 0.1 mm 0 mps 625 mmHg 94%
01:00 +16°C° 0.1 mm 0 mps 625 mmHg 94%
02:00 +16°C° 0.1 mm 0 mps 625 mmHg 94%
03:00 +16°C° 0.1 mm 0 mps 625 mmHg 95%
04:00 +15°C° 0.1 mm 0 mps 625 mmHg 95%
05:00 +15°C° 0.1 mm 0 mps 625 mmHg 95%
06:00 +15°C° 0.1 mm 0 mps 625 mmHg 95%
07:00 +15°C° 0.1 mm 0 mps 626 mmHg 95%
08:00 +18°C° 0.1 mm 0 mps 626 mmHg 86%
09:00 +22°C° 0.1 mm 1 mps 627 mmHg 77%
10:00 +24°C° 0.1 mm 1 mps 628 mmHg 68%
11:00 +25°C° 0.1 mm 1 mps 628 mmHg 62%
12:00 +27°C° 0.1 mm 1 mps 628 mmHg 56%
13:00 +28°C° 0.1 mm 1 mps 628 mmHg 50%
14:00 +27°C° 0.3 mm 1 mps 627 mmHg 56%
15:00 +26°C° 0.3 mm 1 mps 626 mmHg 61%
16:00 +25°C° 0.3 mm 1 mps 625 mmHg 67%
17:00 +23°C° 0.4 mm 1 mps 625 mmHg 75%
18:00 +21°C° 0.4 mm 1 mps 625 mmHg 84%
19:00 +19°C° 0.4 mm 1 mps 625 mmHg 92%
20:00 +19°C° 0.2 mm 1 mps 625 mmHg 93%
21:00 +18°C° 0.2 mm 1 mps 625 mmHg 94%
22:00 +16°C° 0.2 mm 0 mps 626 mmHg 95%
23:00 +15°C° 0 mm 0 mps 625 mmHg 96%

Tomorrow, 22 January, Friday

Time Temperature Precipitation Wind Pressure Humidity
00:00 +15°C° 0 mm 0 mps 625 mmHg 96%
01:00 +15°C° 0 mm 0 mps 625 mmHg 96%
02:00 +15°C° 0 mm 0 mps 625 mmHg 96%
03:00 +14°C° 0 mm 0 mps 624 mmHg 97%
04:00 +14°C° 0 mm 0 mps 624 mmHg 97%
05:00 +14°C° 0 mm 0 mps 624 mmHg 96%
06:00 +14°C° 0 mm 0 mps 625 mmHg 96%
07:00 +15°C° 0 mm 0 mps 625 mmHg 95%
08:00 +17°C° 0 mm 0 mps 626 mmHg 87%
09:00 +19°C° 0 mm 0 mps 627 mmHg 79%
10:00 +23°C° 0 mm 1 mps 628 mmHg 71%
11:00 +24°C° 0.2 mm 1 mps 628 mmHg 65%
12:00 +26°C° 0.2 mm 1 mps 628 mmHg 60%
13:00 +27°C° 0.2 mm 1 mps 628 mmHg 54%
14:00 +26°C° 0.6 mm 1 mps 627 mmHg 60%
15:00 +25°C° 0.6 mm 1 mps 626 mmHg 65%
16:00 +25°C° 0.6 mm 1 mps 626 mmHg 70%
17:00 +23°C° 0.9 mm 1 mps 626 mmHg 79%
18:00 +20°C° 0.9 mm 1 mps 625 mmHg 87%
19:00 +18°C° 0.9 mm 1 mps 625 mmHg 95%
20:00 +18°C° 0.9 mm 1 mps 626 mmHg 96%
21:00 +18°C° 0.9 mm 1 mps 626 mmHg 96%
22:00 +16°C° 0.9 mm 0 mps 626 mmHg 97%
23:00 +16°C° 0.4 mm 0 mps 626 mmHg 97%

Day after tomorrow, 23 January, Saturday

Time Temperature Precipitation Wind Pressure Humidity
00:00 +16°C° 0.4 mm 0 mps 626 mmHg 97%
01:00 +15°C° 0.4 mm 0 mps 626 mmHg 97%
02:00 +15°C° 0.3 mm 0 mps 626 mmHg 97%
03:00 +15°C° 0.3 mm 0 mps 625 mmHg 97%
04:00 +15°C° 0.3 mm 0 mps 625 mmHg 97%
05:00 +15°C° 0.1 mm 0 mps 625 mmHg 97%
06:00 +15°C° 0.1 mm 0 mps 626 mmHg 97%
07:00 +15°C° 0.1 mm 0 mps 626 mmHg 97%
08:00 +17°C° 0.2 mm 0 mps 627 mmHg 89%
09:00 +19°C° 0.2 mm 0 mps 628 mmHg 82%
10:00 +23°C° 0.2 mm 1 mps 629 mmHg 74%
11:00 +24°C° 0.6 mm 1 mps 628 mmHg 71%
12:00 +23°C° 0.6 mm 0 mps 628 mmHg 67%
13:00 +24°C° 0.6 mm 0 mps 628 mmHg 64%
14:00 +24°C° 0.9 mm 0 mps 627 mmHg 67%
15:00 +23°C° 0.9 mm 0 mps 626 mmHg 71%
16:00 +22°C° 0.9 mm 0 mps 626 mmHg 74%
17:00 +22°C° 0.9 mm 1 mps 625 mmHg 81%
18:00 +20°C° 0.9 mm 1 mps 625 mmHg 88%
19:00 +18°C° 0.9 mm 1 mps 625 mmHg 95%
20:00 +18°C° 0.5 mm 1 mps 625 mmHg 96%
21:00 +18°C° 0.5 mm 1 mps 626 mmHg 96%
22:00 +16°C° 0.5 mm 1 mps 626 mmHg 96%
23:00 +15°C° 0.2 mm 0 mps 626 mmHg 96%

24 January, Sunday

Time Temperature Precipitation Wind Pressure Humidity
00:00 +15°C° 0.2 mm 0 mps 625 mmHg 96%
01:00 +15°C° 0.2 mm 0 mps 625 mmHg 96%
02:00 +14°C° 0 mm 0 mps 625 mmHg 96%
03:00 +14°C° 0 mm 0 mps 624 mmHg 96%
04:00 +14°C° 0 mm 0 mps 624 mmHg 96%
05:00 +14°C° 0 mm 0 mps 625 mmHg 96%
06:00 +14°C° 0 mm 0 mps 625 mmHg 96%
07:00 +15°C° 0 mm 0 mps 625 mmHg 96%
08:00 +17°C° 0 mm 0 mps 626 mmHg 87%
09:00 +19°C° 0 mm 0 mps 627 mmHg 79%
10:00 +23°C° 0 mm 1 mps 628 mmHg 71%
11:00 +24°C° 0.2 mm 1 mps 627 mmHg 66%
12:00 +26°C° 0.2 mm 1 mps 627 mmHg 61%
13:00 +27°C° 0.2 mm 1 mps 627 mmHg 56%
14:00 +26°C° 0.6 mm 1 mps 626 mmHg 60%
15:00 +24°C° 0.6 mm 0 mps 626 mmHg 63%
16:00 +23°C° 0.6 mm 0 mps 625 mmHg 67%
17:00 +23°C° 0.9 mm 1 mps 625 mmHg 76%
18:00 +21°C° 0.9 mm 1 mps 624 mmHg 85%
19:00 +19°C° 0.9 mm 1 mps 624 mmHg 94%
20:00 +18°C° 1.1 mm 1 mps 624 mmHg 95%
21:00 +18°C° 1.1 mm 1 mps 625 mmHg 96%
22:00 +16°C° 1.1 mm 0 mps 625 mmHg 97%
23:00 +16°C° 1.1 mm 0 mps 625 mmHg 97%

25 January, Monday

Time Temperature Precipitation Wind Pressure Humidity
00:00 +16°C° 1.1 mm 0 mps 625 mmHg 97%
01:00 +15°C° 1.1 mm 0 mps 625 mmHg 98%
02:00 +15°C° 0.4 mm 0 mps 624 mmHg 98%
03:00 +15°C° 0.4 mm 0 mps 624 mmHg 98%
04:00 +15°C° 0.4 mm 0 mps 624 mmHg 98%
05:00 +15°C° 0 mm 0 mps 624 mmHg 97%
06:00 +15°C° 0 mm 0 mps 624 mmHg 97%
07:00 +15°C° 0 mm 0 mps 625 mmHg 96%
08:00 +17°C° 0 mm 0 mps 626 mmHg 87%
09:00 +19°C° 0 mm 0 mps 626 mmHg 78%
10:00 +24°C° 0 mm 1 mps 627 mmHg 68%
11:00 +25°C° 0.3 mm 1 mps 627 mmHg 65%
12:00 +26°C° 0.3 mm 1 mps 627 mmHg 62%
13:00 +27°C° 0.3 mm 1 mps 626 mmHg 59%
14:00 +26°C° 1 mm 1 mps 626 mmHg 63%
15:00 +23°C° 1 mm 0 mps 625 mmHg 67%
16:00 +23°C° 1 mm 0 mps 624 mmHg 71%
17:00 +23°C° 1 mm 1 mps 624 mmHg 79%
18:00 +21°C° 1 mm 1 mps 624 mmHg 86%
19:00 +19°C° 1 mm 1 mps 624 mmHg 94%
20:00 +19°C° 1 mm 1 mps 624 mmHg 95%
21:00 +18°C° 1 mm 1 mps 624 mmHg 96%
22:00 +16°C° 1 mm 0 mps 625 mmHg 97%
23:00 +16°C° 0.6 mm 0 mps 625 mmHg 97%

26 January, Tuesday

Time Temperature Precipitation Wind Pressure Humidity
00:00 +16°C° 0.6 mm 0 mps 624 mmHg 97%
01:00 +15°C° 0.6 mm 0 mps 624 mmHg 97%
02:00 +15°C° 0.1 mm 0 mps 624 mmHg 97%
03:00 +15°C° 0.1 mm 0 mps 624 mmHg 97%
04:00 +15°C° 0.1 mm 0 mps 624 mmHg 97%
05:00 +15°C° 0 mm 0 mps 624 mmHg 97%
06:00 +15°C° 0 mm 0 mps 625 mmHg 96%
07:00 +16°C° 0 mm 0 mps 625 mmHg 96%
08:00 +17°C° 0.1 mm 0 mps 626 mmHg 90%
09:00 +19°C° 0.1 mm 0 mps 627 mmHg 84%
10:00 +21°C° 0.1 mm 0 mps 628 mmHg 78%
11:00 +22°C° 0.3 mm 0 mps 628 mmHg 71%
12:00 +26°C° 0.3 mm 1 mps 627 mmHg 65%
13:00 +27°C° 0.3 mm 1 mps 627 mmHg 58%
14:00 +26°C° 0.4 mm 1 mps 627 mmHg 63%
15:00 +26°C° 0.4 mm 1 mps 626 mmHg 68%
16:00 +25°C° 0.4 mm 1 mps 625 mmHg 73%
17:00 +23°C° 0.2 mm 1 mps 625 mmHg 80%
18:00 +21°C° 0.2 mm 1 mps 625 mmHg 87%
19:00 +19°C° 0.2 mm 1 mps 625 mmHg 94%
20:00 +19°C° 0 mm 1 mps 625 mmHg 94%
21:00 +19°C° 0 mm 1 mps 625 mmHg 95%
22:00 +16°C° 0 mm 0 mps 626 mmHg 95%
23:00 +16°C° 0.1 mm 0 mps 625 mmHg 95%
Show more

We Need Your Consent

Meteoprog and our Service Providers may store and access personal data such as cookies, device identifiers or other similar technologies on your device and process such data to personalise content and ads, as well as provide social media features and to analyse the traffic.

  • Store and/or access information on your device

    Cookies, device identifiers or other information can be stored or accessed on your device for the purposes indicated above.

  • Personalised ads and content, ad and content measurement, audience insights, and products development

    Ads and content can be personalised based on a profile. More data can be added to better personalise ads and content. Ad and content performance can be measured. Insights about the audience who saw the ads and content can be derived. Such data can be used to develop or improve user’s experience, systems and software.

By clicking ‘I Agree’ you will allow the use of indicated cookies, device identifiers, web beacons or other similar technologies. Your settings can be changed in the browser on your device.

For certain purposes, legitimate interests may be relied on, rather than consent. You can read more about this in our Privacy and Cookie Policy.